Year,Month,Day,Hour,Minute,Value (Times are PST for temperature in C)
2016,06,04,00,00,14.40
2016,06,04,00,01,14.40
2016,06,04,00,02,14.30
2016,06,04,00,03,14.30
2016,06,04,00,04,14.20
2016,06,04,00,05,14.20
2016,06,04,00,06,14.20
2016,06,04,00,07,14.10
2016,06,04,00,08,14.10
2016,06,04,00,09,14.00
2016,06,04,00,10,14.00
2016,06,04,00,11,13.90
2016,06,04,00,12,13.90
2016,06,04,00,13,13.90
2016,06,04,00,14,13.80
2016,06,04,00,15,13.80
2016,06,04,00,16,13.80
2016,06,04,00,17,13.80
2016,06,04,00,18,13.70
2016,06,04,00,19,13.70
2016,06,04,00,20,13.70
2016,06,04,00,21,13.70
2016,06,04,00,22,13.60
2016,06,04,00,23,13.60
2016,06,04,00,24,13.60
2016,06,04,00,25,13.50
2016,06,04,00,26,13.50
2016,06,04,00,27,13.40
2016,06,04,00,28,13.40
2016,06,04,00,29,13.40
2016,06,04,00,30,13.40
2016,06,04,00,31,13.40
2016,06,04,00,32,13.40
2016,06,04,00,33,13.40
2016,06,04,00,34,13.50
2016,06,04,00,35,13.50
2016,06,04,00,36,13.50
2016,06,04,00,37,13.50
2016,06,04,00,38,13.60
2016,06,04,00,39,13.60
2016,06,04,00,40,13.60
2016,06,04,00,41,13.50
2016,06,04,00,42,13.50
2016,06,04,00,43,13.60
2016,06,04,00,44,13.50
2016,06,04,00,45,13.50
2016,06,04,00,46,13.50
2016,06,04,00,47,13.50
2016,06,04,00,48,13.50
2016,06,04,00,49,13.50
2016,06,04,00,50,13.40
2016,06,04,00,51,13.40
2016,06,04,00,52,13.40
2016,06,04,00,53,13.30
2016,06,04,00,54,13.30
2016,06,04,00,55,13.30
2016,06,04,00,56,13.30
2016,06,04,00,57,13.30
2016,06,04,00,58,13.30
2016,06,04,00,59,13.30
2016,06,04,01,00,13.20
2016,06,04,01,01,13.20
2016,06,04,01,02,13.20
2016,06,04,01,03,13.20
2016,06,04,01,04,13.20
2016,06,04,01,05,13.20
2016,06,04,01,06,13.20
2016,06,04,01,07,13.20
2016,06,04,01,08,13.20
2016,06,04,01,09,13.10
2016,06,04,01,10,13.10
2016,06,04,01,11,13.10
2016,06,04,01,12,13.10
2016,06,04,01,13,13.00
2016,06,04,01,14,13.00
2016,06,04,01,15,13.00
2016,06,04,01,16,13.00
2016,06,04,01,17,12.90
2016,06,04,01,18,12.90
2016,06,04,01,19,12.90
2016,06,04,01,20,12.90
2016,06,04,01,21,12.90
2016,06,04,01,22,12.90
2016,06,04,01,23,12.90
2016,06,04,01,24,12.90
2016,06,04,01,25,12.90
2016,06,04,01,26,12.80
2016,06,04,01,27,12.80
2016,06,04,01,28,12.80
2016,06,04,01,29,12.80
2016,06,04,01,30,12.80
2016,06,04,01,31,12.80
2016,06,04,01,32,12.70
2016,06,04,01,33,12.70
2016,06,04,01,34,12.70
2016,06,04,01,35,12.70
2016,06,04,01,36,12.70
2016,06,04,01,37,12.70
2016,06,04,01,38,12.70
2016,06,04,01,39,12.70
2016,06,04,01,40,12.60
2016,06,04,01,41,12.60
2016,06,04,01,42,12.60
2016,06,04,01,43,12.60
2016,06,04,01,44,12.60
2016,06,04,01,45,12.60
2016,06,04,01,46,12.60
2016,06,04,01,47,12.60
2016,06,04,01,48,12.50
2016,06,04,01,49,12.50
2016,06,04,01,50,12.50
2016,06,04,01,51,12.50
2016,06,04,01,52,12.50
2016,06,04,01,53,12.40
2016,06,04,01,54,12.40
2016,06,04,01,55,12.40
2016,06,04,01,56,12.40
2016,06,04,01,57,12.40
2016,06,04,01,58,12.40
2016,06,04,01,59,12.40
2016,06,04,02,00,12.40
2016,06,04,02,01,12.40
2016,06,04,02,02,12.40
2016,06,04,02,03,12.40
2016,06,04,02,04,12.40
2016,06,04,02,05,12.30
2016,06,04,02,06,12.30
2016,06,04,02,07,12.30
2016,06,04,02,08,12.30
2016,06,04,02,09,12.30
2016,06,04,02,10,12.30
2016,06,04,02,11,12.20
2016,06,04,02,12,12.20
2016,06,04,02,13,12.20
2016,06,04,02,14,12.20
2016,06,04,02,15,12.10
2016,06,04,02,16,12.10
2016,06,04,02,17,12.10
2016,06,04,02,18,12.10
2016,06,04,02,19,12.10
2016,06,04,02,20,12.10
2016,06,04,02,21,12.10
2016,06,04,02,22,12.10
2016,06,04,02,23,12.10
2016,06,04,02,24,12.10
2016,06,04,02,25,12.10
2016,06,04,02,26,12.10
2016,06,04,02,27,12.10
2016,06,04,02,28,12.10
2016,06,04,02,29,12.10
2016,06,04,02,30,12.10
2016,06,04,02,31,12.00
2016,06,04,02,32,12.00
2016,06,04,02,33,12.00
2016,06,04,02,34,12.00
2016,06,04,02,35,12.00
2016,06,04,02,36,11.90
2016,06,04,02,37,11.90
2016,06,04,02,38,11.90
2016,06,04,02,39,11.90
2016,06,04,02,40,11.90
2016,06,04,02,41,11.90
2016,06,04,02,42,12.00
2016,06,04,02,43,12.00
2016,06,04,02,44,11.90
2016,06,04,02,45,11.90
2016,06,04,02,46,11.90
2016,06,04,02,47,11.90
2016,06,04,02,48,11.90
2016,06,04,02,49,11.90
2016,06,04,02,50,11.90
2016,06,04,02,51,11.90
2016,06,04,02,52,11.90
2016,06,04,02,53,11.90
2016,06,04,02,54,11.90
2016,06,04,02,55,11.90
2016,06,04,02,56,11.90
2016,06,04,02,57,11.90
2016,06,04,02,58,11.80
2016,06,04,02,59,11.80
2016,06,04,03,00,11.80
2016,06,04,03,01,11.80
2016,06,04,03,02,11.80
2016,06,04,03,03,11.90
2016,06,04,03,04,11.90
2016,06,04,03,05,11.90
2016,06,04,03,06,11.90
2016,06,04,03,07,11.90
2016,06,04,03,08,12.00
2016,06,04,03,09,12.00
2016,06,04,03,10,12.00
2016,06,04,03,11,12.00
2016,06,04,03,12,11.90
2016,06,04,03,13,11.90
2016,06,04,03,14,11.90
2016,06,04,03,15,11.90
2016,06,04,03,16,11.90
2016,06,04,03,17,11.90
2016,06,04,03,18,11.90
2016,06,04,03,19,11.90
2016,06,04,03,20,11.90
2016,06,04,03,21,11.90
2016,06,04,03,22,11.90
2016,06,04,03,23,11.90
2016,06,04,03,24,11.90
2016,06,04,03,25,11.90
2016,06,04,03,26,11.80
2016,06,04,03,27,11.80
2016,06,04,03,28,11.80
2016,06,04,03,29,11.80
2016,06,04,03,30,11.80
2016,06,04,03,31,11.80
2016,06,04,03,32,11.80
2016,06,04,03,33,11.80
2016,06,04,03,34,11.80
2016,06,04,03,35,11.80
2016,06,04,03,36,11.80
2016,06,04,03,37,11.80
2016,06,04,03,38,11.80
2016,06,04,03,39,11.80
2016,06,04,03,40,11.80
2016,06,04,03,41,11.90
2016,06,04,03,42,11.90
2016,06,04,03,43,11.90
2016,06,04,03,44,11.80
2016,06,04,03,45,11.80
2016,06,04,03,46,11.80
2016,06,04,03,47,11.70
2016,06,04,03,48,11.70
2016,06,04,03,49,11.70
2016,06,04,03,50,11.70
2016,06,04,03,51,11.70
2016,06,04,03,52,11.70
2016,06,04,03,53,11.70
2016,06,04,03,54,11.70
2016,06,04,03,55,11.70
2016,06,04,03,56,11.70
2016,06,04,03,57,11.70
2016,06,04,03,58,11.70
2016,06,04,03,59,11.70
2016,06,04,04,00,11.70
2016,06,04,04,01,11.70
2016,06,04,04,02,11.70
2016,06,04,04,03,11.70
2016,06,04,04,04,11.70
2016,06,04,04,05,11.70
2016,06,04,04,06,11.70
2016,06,04,04,07,11.70
2016,06,04,04,08,11.70
2016,06,04,04,09,11.70
2016,06,04,04,10,11.70
2016,06,04,04,11,11.70
2016,06,04,04,12,11.70
2016,06,04,04,13,11.70
2016,06,04,04,14,11.70
2016,06,04,04,15,11.70
2016,06,04,04,16,11.70
2016,06,04,04,17,11.70
2016,06,04,04,18,11.70
2016,06,04,04,19,11.70
2016,06,04,04,20,11.70
2016,06,04,04,21,11.70
2016,06,04,04,22,11.70
2016,06,04,04,23,11.70
2016,06,04,04,24,11.70
2016,06,04,04,25,11.70
2016,06,04,04,26,11.70
2016,06,04,04,27,11.70
2016,06,04,04,28,11.60
2016,06,04,04,29,11.60
2016,06,04,04,30,11.60
2016,06,04,04,31,11.60
2016,06,04,04,32,11.60
2016,06,04,04,33,11.60
2016,06,04,04,34,11.60
2016,06,04,04,35,11.60
2016,06,04,04,36,11.60
2016,06,04,04,37,11.60
2016,06,04,04,38,11.60
2016,06,04,04,39,11.60
2016,06,04,04,40,11.60
2016,06,04,04,41,11.60
2016,06,04,04,42,11.70
2016,06,04,04,43,11.60
2016,06,04,04,44,11.60
2016,06,04,04,45,11.60
2016,06,04,04,46,11.60
2016,06,04,04,47,11.60
2016,06,04,04,48,11.60
2016,06,04,04,49,11.50
2016,06,04,04,50,11.50
2016,06,04,04,51,11.50
2016,06,04,04,52,11.40
2016,06,04,04,53,11.50
2016,06,04,04,54,11.40
2016,06,04,04,55,11.40
2016,06,04,04,56,11.40
2016,06,04,04,57,11.40
2016,06,04,04,58,11.40
2016,06,04,04,59,11.40
2016,06,04,05,00,11.40
2016,06,04,05,01,11.40
2016,06,04,05,02,11.40
2016,06,04,05,03,11.40
2016,06,04,05,04,11.40
2016,06,04,05,05,11.40
2016,06,04,05,06,11.40
2016,06,04,05,07,11.40
2016,06,04,05,08,11.50
2016,06,04,05,09,11.40
2016,06,04,05,10,11.40
2016,06,04,05,11,11.40
2016,06,04,05,12,11.40
2016,06,04,05,13,11.40
2016,06,04,05,14,11.40
2016,06,04,05,15,11.40
2016,06,04,05,16,11.40
2016,06,04,05,17,11.40
2016,06,04,05,18,11.40
2016,06,04,05,19,11.30
2016,06,04,05,20,11.30
2016,06,04,05,21,11.30
2016,06,04,05,22,11.30
2016,06,04,05,23,11.30
2016,06,04,05,24,11.30
2016,06,04,05,25,11.30
2016,06,04,05,26,11.30
2016,06,04,05,27,11.40
2016,06,04,05,28,11.40
2016,06,04,05,29,11.40
2016,06,04,05,30,11.40
2016,06,04,05,31,11.40
2016,06,04,05,32,11.50
2016,06,04,05,33,11.50
2016,06,04,05,34,11.50
2016,06,04,05,35,11.40
2016,06,04,05,36,11.50
2016,06,04,05,37,11.50
2016,06,04,05,38,11.60
2016,06,04,05,39,11.60
2016,06,04,05,40,11.70
2016,06,04,05,41,11.80
2016,06,04,05,42,11.80
2016,06,04,05,43,11.90
2016,06,04,05,44,11.90
2016,06,04,05,45,11.90
2016,06,04,05,46,11.90
2016,06,04,05,47,12.00
2016,06,04,05,48,12.00
2016,06,04,05,49,12.10
2016,06,04,05,50,12.10
2016,06,04,05,51,12.10
2016,06,04,05,52,12.10
2016,06,04,05,53,12.10
2016,06,04,05,54,12.10
2016,06,04,05,55,12.10
2016,06,04,05,56,12.10
2016,06,04,05,57,12.10
2016,06,04,05,58,12.10
2016,06,04,05,59,12.10
2016,06,04,06,00,12.10
2016,06,04,06,01,12.10
2016,06,04,06,02,12.20
2016,06,04,06,03,12.20
2016,06,04,06,04,12.20
2016,06,04,06,05,12.20
2016,06,04,06,06,12.30
2016,06,04,06,07,12.30
2016,06,04,06,08,12.30
2016,06,04,06,09,12.40
2016,06,04,06,10,12.40
2016,06,04,06,11,12.40
2016,06,04,06,12,12.40
2016,06,04,06,13,12.40
2016,06,04,06,14,12.40
2016,06,04,06,15,12.50
2016,06,04,06,16,12.50
2016,06,04,06,17,12.50
2016,06,04,06,18,12.50
2016,06,04,06,19,12.60
2016,06,04,06,20,12.60
2016,06,04,06,21,12.60
2016,06,04,06,22,12.70
2016,06,04,06,23,12.70
2016,06,04,06,24,12.80
2016,06,04,06,25,12.80
2016,06,04,06,26,12.80
2016,06,04,06,27,12.90
2016,06,04,06,28,12.90
2016,06,04,06,29,12.90
2016,06,04,06,30,13.00
2016,06,04,06,31,13.10
2016,06,04,06,32,13.10
2016,06,04,06,33,13.10
2016,06,04,06,34,13.20
2016,06,04,06,35,13.20
2016,06,04,06,36,13.30
2016,06,04,06,37,13.30
2016,06,04,06,38,13.40
2016,06,04,06,39,13.40
2016,06,04,06,40,13.50
2016,06,04,06,41,13.60
2016,06,04,06,42,13.70
2016,06,04,06,43,13.70
2016,06,04,06,44,13.70
2016,06,04,06,45,13.80
2016,06,04,06,46,13.80
2016,06,04,06,47,13.80
2016,06,04,06,48,13.90
2016,06,04,06,49,13.90
2016,06,04,06,50,14.00
2016,06,04,06,51,14.00
2016,06,04,06,52,14.10
2016,06,04,06,53,14.10
2016,06,04,06,54,14.20
2016,06,04,06,55,14.20
2016,06,04,06,56,14.20
2016,06,04,06,57,14.20
2016,06,04,06,58,14.30
2016,06,04,06,59,14.30
2016,06,04,07,00,14.30
2016,06,04,07,01,14.40
2016,06,04,07,02,14.40
2016,06,04,07,03,14.40
2016,06,04,07,04,14.40
2016,06,04,07,05,14.40
2016,06,04,07,06,14.40
2016,06,04,07,07,14.40
2016,06,04,07,08,14.40
2016,06,04,07,09,14.40
2016,06,04,07,10,14.50
2016,06,04,07,11,14.50
2016,06,04,07,12,14.50
2016,06,04,07,13,14.60
2016,06,04,07,14,14.60
2016,06,04,07,15,14.60
2016,06,04,07,16,14.60
2016,06,04,07,17,14.70
2016,06,04,07,18,14.70
2016,06,04,07,19,14.70
2016,06,04,07,20,14.80
2016,06,04,07,21,14.80
2016,06,04,07,22,14.90
2016,06,04,07,23,14.90
2016,06,04,07,24,15.00
2016,06,04,07,25,15.00
2016,06,04,07,26,15.10
2016,06,04,07,27,15.10
2016,06,04,07,28,15.20
2016,06,04,07,29,15.20
2016,06,04,07,30,15.30
2016,06,04,07,31,15.30
2016,06,04,07,32,15.30
2016,06,04,07,33,15.40
2016,06,04,07,34,15.40
2016,06,04,07,35,15.40
2016,06,04,07,36,15.40
2016,06,04,07,37,15.50
2016,06,04,07,38,15.50
2016,06,04,07,39,15.60
2016,06,04,07,40,15.60
2016,06,04,07,41,15.60
2016,06,04,07,42,15.70
2016,06,04,07,43,15.70
2016,06,04,07,44,15.70
2016,06,04,07,45,15.70
2016,06,04,07,46,15.80
2016,06,04,07,47,15.80
2016,06,04,07,48,15.80
2016,06,04,07,49,15.80
2016,06,04,07,50,15.90
2016,06,04,07,51,16.00
2016,06,04,07,52,16.00
2016,06,04,07,53,16.00
2016,06,04,07,54,16.10
2016,06,04,07,55,16.20
2016,06,04,07,56,16.20
2016,06,04,07,57,16.30
2016,06,04,07,58,16.30
2016,06,04,07,59,16.30
2016,06,04,08,00,16.40
2016,06,04,08,01,16.40
2016,06,04,08,02,16.40
2016,06,04,08,03,16.50
2016,06,04,08,04,16.50
2016,06,04,08,05,16.50
2016,06,04,08,06,16.60
2016,06,04,08,07,16.60
2016,06,04,08,08,16.70
2016,06,04,08,09,16.70
2016,06,04,08,10,16.80
2016,06,04,08,11,16.80
2016,06,04,08,12,16.90
2016,06,04,08,13,17.00
2016,06,04,08,14,17.00
2016,06,04,08,15,17.10
2016,06,04,08,16,17.20
2016,06,04,08,17,17.20
2016,06,04,08,18,17.30
2016,06,04,08,19,17.40
2016,06,04,08,20,17.40
2016,06,04,08,21,17.50
2016,06,04,08,22,17.50
2016,06,04,08,23,17.60
2016,06,04,08,24,17.60
2016,06,04,08,25,17.70
2016,06,04,08,26,17.80
2016,06,04,08,27,17.80
2016,06,04,08,28,17.90
2016,06,04,08,29,17.90
2016,06,04,08,30,17.90
2016,06,04,08,31,18.00
2016,06,04,08,32,18.10
2016,06,04,08,33,18.10
2016,06,04,08,34,18.20
2016,06,04,08,35,18.30
2016,06,04,08,36,18.30
2016,06,04,08,37,18.30
2016,06,04,08,38,18.40
2016,06,04,08,39,18.40
2016,06,04,08,40,18.40
2016,06,04,08,41,18.50
2016,06,04,08,42,18.50
2016,06,04,08,43,18.60
2016,06,04,08,44,18.60
2016,06,04,08,45,18.60
2016,06,04,08,46,18.70
2016,06,04,08,47,18.70
2016,06,04,08,48,18.70
2016,06,04,08,49,18.70
2016,06,04,08,50,18.80
2016,06,04,08,51,18.80
2016,06,04,08,52,18.80
2016,06,04,08,53,18.90
2016,06,04,08,54,18.90
2016,06,04,08,55,18.90
2016,06,04,08,56,18.90
2016,06,04,08,57,18.90
2016,06,04,08,58,18.90
2016,06,04,08,59,19.00
2016,06,04,09,00,19.00
2016,06,04,09,01,19.00
2016,06,04,09,02,19.10
2016,06,04,09,03,19.10
2016,06,04,09,04,19.20
2016,06,04,09,05,19.20
2016,06,04,09,06,19.20
2016,06,04,09,07,19.30
2016,06,04,09,08,19.30
2016,06,04,09,09,19.30
2016,06,04,09,10,19.30
2016,06,04,09,11,19.30
2016,06,04,09,12,19.40
2016,06,04,09,13,19.40
2016,06,04,09,14,19.40
2016,06,04,09,15,19.50
2016,06,04,09,16,19.50
2016,06,04,09,17,19.60
2016,06,04,09,18,19.60
2016,06,04,09,19,19.60
2016,06,04,09,20,19.60
2016,06,04,09,21,19.70
2016,06,04,09,22,19.80
2016,06,04,09,23,19.80
2016,06,04,09,24,19.90
2016,06,04,09,25,19.90
2016,06,04,09,26,19.90
2016,06,04,09,27,20.00
2016,06,04,09,28,20.00
2016,06,04,09,29,20.10
2016,06,04,09,30,20.10
2016,06,04,09,31,20.10
2016,06,04,09,32,20.20
2016,06,04,09,33,20.20
2016,06,04,09,34,20.20
2016,06,04,09,35,20.20
2016,06,04,09,36,20.20
2016,06,04,09,37,20.30
2016,06,04,09,38,20.30
2016,06,04,09,39,20.30
2016,06,04,09,40,20.40
2016,06,04,09,41,20.40
2016,06,04,09,42,20.50
2016,06,04,09,43,20.50
2016,06,04,09,44,20.60
2016,06,04,09,45,20.60
2016,06,04,09,46,20.60
2016,06,04,09,47,20.60
2016,06,04,09,48,20.60
2016,06,04,09,49,20.60
2016,06,04,09,50,20.70
2016,06,04,09,51,20.70
2016,06,04,09,52,20.70
2016,06,04,09,53,20.80
2016,06,04,09,54,20.80
2016,06,04,09,55,20.80
2016,06,04,09,56,20.80
2016,06,04,09,57,20.80
2016,06,04,09,58,20.80
2016,06,04,09,59,20.80
2016,06,04,10,00,20.80
2016,06,04,10,01,20.90
2016,06,04,10,02,20.90
2016,06,04,10,03,20.90
2016,06,04,10,04,20.90
2016,06,04,10,05,20.90
2016,06,04,10,06,20.90
2016,06,04,10,07,20.90
2016,06,04,10,08,20.90
2016,06,04,10,09,20.90
2016,06,04,10,10,20.90
2016,06,04,10,11,21.00
2016,06,04,10,12,21.00
2016,06,04,10,13,21.00
2016,06,04,10,14,21.10
2016,06,04,10,15,21.20
2016,06,04,10,16,21.30
2016,06,04,10,17,21.30
2016,06,04,10,18,21.40
2016,06,04,10,19,21.40
2016,06,04,10,20,21.40
2016,06,04,10,21,21.40
2016,06,04,10,22,21.40
2016,06,04,10,23,21.40
2016,06,04,10,24,21.40
2016,06,04,10,25,21.40
2016,06,04,10,26,21.40
2016,06,04,10,27,21.30
2016,06,04,10,28,21.30
2016,06,04,10,29,21.40
2016,06,04,10,30,21.50
2016,06,04,10,31,21.50
2016,06,04,10,32,21.60
2016,06,04,10,33,21.70
2016,06,04,10,34,21.60
2016,06,04,10,35,21.70
2016,06,04,10,36,21.70
2016,06,04,10,37,21.70
2016,06,04,10,38,21.70
2016,06,04,10,39,21.70
2016,06,04,10,40,21.80
2016,06,04,10,41,21.80
2016,06,04,10,42,21.90
2016,06,04,10,43,21.90
2016,06,04,10,44,21.90
2016,06,04,10,45,21.90
2016,06,04,10,46,21.90
2016,06,04,10,47,21.90
2016,06,04,10,48,21.90
2016,06,04,10,49,21.80
2016,06,04,10,50,21.80
2016,06,04,10,51,21.90
2016,06,04,10,52,22.00
2016,06,04,10,53,22.00
2016,06,04,10,54,22.10
2016,06,04,10,55,22.10
2016,06,04,10,56,22.30
2016,06,04,10,57,22.30
2016,06,04,10,58,22.30
2016,06,04,10,59,22.40
2016,06,04,11,00,22.40
2016,06,04,11,01,22.40
2016,06,04,11,02,22.30
2016,06,04,11,03,22.30
2016,06,04,11,04,22.40
2016,06,04,11,05,22.50
2016,06,04,11,06,22.50
2016,06,04,11,07,22.60
2016,06,04,11,08,22.50
2016,06,04,11,09,22.50
2016,06,04,11,10,22.50
2016,06,04,11,11,22.60
2016,06,04,11,12,22.70
2016,06,04,11,13,22.80
2016,06,04,11,14,22.80
2016,06,04,11,15,22.90
2016,06,04,11,16,22.90
2016,06,04,11,17,22.90
2016,06,04,11,18,23.00
2016,06,04,11,19,23.00
2016,06,04,11,20,23.10
2016,06,04,11,21,23.10
2016,06,04,11,22,23.20
2016,06,04,11,23,23.20
2016,06,04,11,24,23.20
2016,06,04,11,25,23.30
2016,06,04,11,26,23.30
2016,06,04,11,27,23.40
2016,06,04,11,28,23.40
2016,06,04,11,29,23.30
2016,06,04,11,30,23.30
2016,06,04,11,31,23.20
2016,06,04,11,32,23.10
2016,06,04,11,33,23.10
2016,06,04,11,34,23.10
2016,06,04,11,35,23.10
2016,06,04,11,36,23.10
2016,06,04,11,37,23.20
2016,06,04,11,38,23.20
2016,06,04,11,39,23.20
2016,06,04,11,40,23.20
2016,06,04,11,41,23.30
2016,06,04,11,42,23.30
2016,06,04,11,43,23.30
2016,06,04,11,44,23.40
2016,06,04,11,45,23.50
2016,06,04,11,46,23.50
2016,06,04,11,47,23.50
2016,06,04,11,48,23.60
2016,06,04,11,49,23.60
2016,06,04,11,50,23.70
2016,06,04,11,51,23.80
2016,06,04,11,52,23.80
2016,06,04,11,53,23.80
2016,06,04,11,54,23.80
2016,06,04,11,55,23.80
2016,06,04,11,56,23.80
2016,06,04,11,57,23.70
2016,06,04,11,58,23.70
2016,06,04,11,59,23.70
2016,06,04,12,00,23.70
2016,06,04,12,01,23.70
2016,06,04,12,02,23.70
2016,06,04,12,03,23.70
2016,06,04,12,04,23.70
2016,06,04,12,05,23.70
2016,06,04,12,06,23.70
2016,06,04,12,07,23.80
2016,06,04,12,08,23.80
2016,06,04,12,09,23.90
2016,06,04,12,10,23.90
2016,06,04,12,11,23.90
2016,06,04,12,12,23.90
2016,06,04,12,13,24.00
2016,06,04,12,14,24.00
2016,06,04,12,15,24.10
2016,06,04,12,16,24.10
2016,06,04,12,17,24.10
2016,06,04,12,18,24.20
2016,06,04,12,19,24.20
2016,06,04,12,20,24.20
2016,06,04,12,21,24.30
2016,06,04,12,22,24.30
2016,06,04,12,23,24.30
2016,06,04,12,24,24.30
2016,06,04,12,25,24.30
2016,06,04,12,26,24.30
2016,06,04,12,27,24.30
2016,06,04,12,28,24.40
2016,06,04,12,29,24.40
2016,06,04,12,30,24.50
2016,06,04,12,31,24.60
2016,06,04,12,32,24.60
2016,06,04,12,33,24.70
2016,06,04,12,34,24.70
2016,06,04,12,35,24.80
2016,06,04,12,36,24.80
2016,06,04,12,37,24.90
2016,06,04,12,38,24.90
2016,06,04,12,39,24.90
2016,06,04,12,40,24.90
2016,06,04,12,41,24.90
2016,06,04,12,42,24.90
2016,06,04,12,43,24.90
2016,06,04,12,44,24.90
2016,06,04,12,45,24.90
2016,06,04,12,46,24.90
2016,06,04,12,47,24.90
2016,06,04,12,48,24.90
2016,06,04,12,49,25.00
2016,06,04,12,50,25.00
2016,06,04,12,51,25.10
2016,06,04,12,52,25.10
2016,06,04,12,53,25.10
2016,06,04,12,54,25.00
2016,06,04,12,55,25.10
2016,06,04,12,56,25.10
2016,06,04,12,57,25.20
2016,06,04,12,58,25.20
2016,06,04,12,59,25.30
2016,06,04,13,00,25.30
2016,06,04,13,01,25.40
2016,06,04,13,02,25.40
2016,06,04,13,03,25.40
2016,06,04,13,04,25.50
2016,06,04,13,05,25.60
2016,06,04,13,06,25.70
2016,06,04,13,07,25.90
2016,06,04,13,08,25.90
2016,06,04,13,09,25.90
2016,06,04,13,10,25.90
2016,06,04,13,11,26.00
2016,06,04,13,12,26.10
2016,06,04,13,13,26.10
2016,06,04,13,14,26.20
2016,06,04,13,15,26.10
2016,06,04,13,16,26.00
2016,06,04,13,17,26.00
2016,06,04,13,18,26.00
2016,06,04,13,19,26.00
2016,06,04,13,20,26.00
2016,06,04,13,21,26.00
2016,06,04,13,22,25.90
2016,06,04,13,23,25.90
2016,06,04,13,24,25.80
2016,06,04,13,25,25.80
2016,06,04,13,26,25.80
2016,06,04,13,27,25.70
2016,06,04,13,28,25.80
2016,06,04,13,29,25.80
2016,06,04,13,30,25.90
2016,06,04,13,31,26.00
2016,06,04,13,32,26.10
2016,06,04,13,33,26.20
2016,06,04,13,34,26.30
2016,06,04,13,35,26.30
2016,06,04,13,36,26.30
2016,06,04,13,37,26.40
2016,06,04,13,38,26.40
2016,06,04,13,39,26.40
2016,06,04,13,40,26.50
2016,06,04,13,41,26.50
2016,06,04,13,42,26.40
2016,06,04,13,43,26.40
2016,06,04,13,44,26.40
2016,06,04,13,45,26.50
2016,06,04,13,46,26.50
2016,06,04,13,47,26.60
2016,06,04,13,48,26.60
2016,06,04,13,49,26.60
2016,06,04,13,50,26.70
2016,06,04,13,51,26.70
2016,06,04,13,52,26.80
2016,06,04,13,53,26.90
2016,06,04,13,54,26.90
2016,06,04,13,55,26.90
2016,06,04,13,56,27.00
2016,06,04,13,57,27.00
2016,06,04,13,58,27.10
2016,06,04,13,59,27.10
2016,06,04,14,00,27.20
2016,06,04,14,01,27.20
2016,06,04,14,02,27.20
2016,06,04,14,03,27.10
2016,06,04,14,04,27.10
2016,06,04,14,05,27.10
2016,06,04,14,06,27.00
2016,06,04,14,07,27.00
2016,06,04,14,08,27.00
2016,06,04,14,09,27.00
2016,06,04,14,10,27.10
2016,06,04,14,11,27.10
2016,06,04,14,12,27.20
2016,06,04,14,13,27.20
2016,06,04,14,14,27.20
2016,06,04,14,15,27.20
2016,06,04,14,16,27.30
2016,06,04,14,17,27.30
2016,06,04,14,18,27.40
2016,06,04,14,19,27.40
2016,06,04,14,20,27.40
2016,06,04,14,21,27.40
2016,06,04,14,22,27.40
2016,06,04,14,23,27.50
2016,06,04,14,24,27.50
2016,06,04,14,25,27.60
2016,06,04,14,26,27.70
2016,06,04,14,27,27.80
2016,06,04,14,28,27.90
2016,06,04,14,29,27.90
2016,06,04,14,30,27.90
2016,06,04,14,31,28.00
2016,06,04,14,32,28.00
2016,06,04,14,33,28.00
2016,06,04,14,34,28.10
2016,06,04,14,35,28.10
2016,06,04,14,36,28.00
2016,06,04,14,37,28.00
2016,06,04,14,38,28.00
2016,06,04,14,39,27.90
2016,06,04,14,40,27.90
2016,06,04,14,41,27.90
2016,06,04,14,42,27.90
2016,06,04,14,43,27.80
2016,06,04,14,44,27.70
2016,06,04,14,45,27.70
2016,06,04,14,46,27.70
2016,06,04,14,47,27.70
2016,06,04,14,48,27.80
2016,06,04,14,49,27.80
2016,06,04,14,50,27.90
2016,06,04,14,51,28.00
2016,06,04,14,52,28.00
2016,06,04,14,53,28.10
2016,06,04,14,54,28.20
2016,06,04,14,55,28.20
2016,06,04,14,56,28.30
2016,06,04,14,57,28.30
2016,06,04,14,58,28.40
2016,06,04,14,59,28.40
2016,06,04,15,00,28.40
2016,06,04,15,01,28.50
2016,06,04,15,02,28.60
2016,06,04,15,03,28.70
2016,06,04,15,04,28.70
2016,06,04,15,05,28.70
2016,06,04,15,06,28.70
2016,06,04,15,07,28.70
2016,06,04,15,08,28.60
2016,06,04,15,09,28.70
2016,06,04,15,10,28.60
2016,06,04,15,11,28.60
2016,06,04,15,12,28.60
2016,06,04,15,13,28.60
2016,06,04,15,14,28.60
2016,06,04,15,15,28.50
2016,06,04,15,16,28.50
2016,06,04,15,17,28.60
2016,06,04,15,18,28.60
2016,06,04,15,19,28.60
2016,06,04,15,20,28.60
2016,06,04,15,21,28.70
2016,06,04,15,22,28.70
2016,06,04,15,23,28.70
2016,06,04,15,24,28.60
2016,06,04,15,25,28.50
2016,06,04,15,26,28.40
2016,06,04,15,27,28.40
2016,06,04,15,28,28.40
2016,06,04,15,29,28.40
2016,06,04,15,30,28.40
2016,06,04,15,31,28.40
2016,06,04,15,32,28.50
2016,06,04,15,33,28.60
2016,06,04,15,34,28.60
2016,06,04,15,35,28.70
2016,06,04,15,36,28.90
2016,06,04,15,37,28.90
2016,06,04,15,38,29.10
2016,06,04,15,39,29.20
2016,06,04,15,40,29.20
2016,06,04,15,41,29.30
2016,06,04,15,42,29.30
2016,06,04,15,43,29.30
2016,06,04,15,44,29.20
2016,06,04,15,45,29.20
2016,06,04,15,46,29.10
2016,06,04,15,47,29.10
2016,06,04,15,48,29.10
2016,06,04,15,49,29.20
2016,06,04,15,50,29.20
2016,06,04,15,51,29.20
2016,06,04,15,52,29.30
2016,06,04,15,53,29.30
2016,06,04,15,54,29.30
2016,06,04,15,55,29.40
2016,06,04,15,56,29.50
2016,06,04,15,57,29.60
2016,06,04,15,58,29.70
2016,06,04,15,59,29.70
2016,06,04,16,00,29.80
2016,06,04,16,01,29.70
2016,06,04,16,02,29.70
2016,06,04,16,03,29.70
2016,06,04,16,04,29.60
2016,06,04,16,05,29.60
2016,06,04,16,06,29.50
2016,06,04,16,07,29.50
2016,06,04,16,08,29.40
2016,06,04,16,09,29.40
2016,06,04,16,10,29.40
2016,06,04,16,11,29.40
2016,06,04,16,12,29.30
2016,06,04,16,13,29.30
2016,06,04,16,14,29.30
2016,06,04,16,15,29.30
2016,06,04,16,16,29.30
2016,06,04,16,17,29.30
2016,06,04,16,18,29.30
2016,06,04,16,19,29.30
2016,06,04,16,20,29.30
2016,06,04,16,21,29.40
2016,06,04,16,22,29.40
2016,06,04,16,23,29.50
2016,06,04,16,24,29.60
2016,06,04,16,25,29.60
2016,06,04,16,26,29.60
2016,06,04,16,27,29.60
2016,06,04,16,28,29.50
2016,06,04,16,29,29.40
2016,06,04,16,30,29.40
2016,06,04,16,31,29.30
2016,06,04,16,32,29.30
2016,06,04,16,33,29.40
2016,06,04,16,34,29.40
2016,06,04,16,35,29.40
2016,06,04,16,36,29.30
2016,06,04,16,37,29.30
2016,06,04,16,38,29.40
2016,06,04,16,39,29.40
2016,06,04,16,40,29.50
2016,06,04,16,41,29.50
2016,06,04,16,42,29.60
2016,06,04,16,43,29.60
2016,06,04,16,44,29.60
2016,06,04,16,45,29.70
2016,06,04,16,46,29.80
2016,06,04,16,47,29.80
2016,06,04,16,48,29.80
2016,06,04,16,49,29.80
2016,06,04,16,50,29.90
2016,06,04,16,51,29.90
2016,06,04,16,52,29.90
2016,06,04,16,53,29.90
2016,06,04,16,54,29.90
2016,06,04,16,55,29.90
2016,06,04,16,56,29.90
2016,06,04,16,57,30.00
2016,06,04,16,58,30.00
2016,06,04,16,59,30.00
2016,06,04,17,00,30.00
2016,06,04,17,01,29.90
2016,06,04,17,02,29.90
2016,06,04,17,03,29.90
2016,06,04,17,04,29.90
2016,06,04,17,05,29.90
2016,06,04,17,06,29.80
2016,06,04,17,07,29.80
2016,06,04,17,08,29.80
2016,06,04,17,09,29.80
2016,06,04,17,10,29.90
2016,06,04,17,11,30.00
2016,06,04,17,12,29.90
2016,06,04,17,13,29.90
2016,06,04,17,14,29.90
2016,06,04,17,15,29.80
2016,06,04,17,16,29.80
2016,06,04,17,17,29.80
2016,06,04,17,18,29.80
2016,06,04,17,19,29.70